QPF
0.00 0.00 0.00 0.00 0.00 0.00 0.00 0.00 0.00 0.00 0.00 0.00 0.00 0.00 0.00 0.00 0.00 0.00 0.00 0.00 0.00 0.00 0.00 0.00 0.00 0.00 0.00 0.00 0.00 0.00 0.00 0.00 0.00 0.00 0.00 0.00 0.00 0.00 0.00 0.00 0.00 0.00 0.01
0.00 0.00 0.00 0.00 0.00 0.00 0.00 0.00 0.00 0.00 0.00 0.00 0.00 0.00 0.00 0.00 0.00 0.00 0.00 0.00 0.00 0.00 0.00 0.00 0.00 0.00 0.00 0.00 0.00 0.00 0.00 0.00 0.00 0.00 0.00 0.00 0.00 0.00 0.00 0.00 0.00 0.00 0.01
0.00 0.00 0.00 0.00 0.00 0.00 0.00 0.00 0.00 0.00 0.00 0.00 0.00 0.00 0.00 0.00 0.00 0.00 0.00 0.00 0.00 0.00 0.00 0.00 0.00 0.00 0.00 0.00 0.00 0.00 0.00 0.00 0.00 0.00 0.00 0.00 0.00 0.00 0.00 0.00 0.00 0.00 0.00
0.00 0.00 0.00 0.00 0.00 0.00 0.00 0.00 0.00 0.00 0.00 0.00 0.00 0.00 0.00 0.00 0.00 0.00 0.00 0.00 0.00 0.00 0.00 0.00 0.00 0.00 0.00 0.00 0.00 0.00 0.00 0.00 0.00 0.00 0.00 0.00 0.00 0.00 0.00 0.00 0.00 0.00 0.00
0.00 0.00 0.00 0.00 0.00 0.00 0.00 0.00 0.00 0.00 0.00 0.00 0.00 0.00 0.00 0.00 0.00 0.00 0.00 0.00 0.00 0.00 0.00 0.00 0.00 0.00 0.00 0.00 0.00 0.00 0.00 0.00 0.00 0.00 0.00 0.00 0.00 0.00 0.00 0.00 0.02 0.01 0.00
0.00 0.00 0.00 0.00 0.00 0.00 0.00 0.00 0.00 0.00 0.00 0.00 0.00 0.00 0.00 0.00 0.00 0.00 0.00 0.00 0.00 0.00 0.00 0.00 0.00 0.00 0.00 0.00 0.00 0.00 0.00 0.00 0.00 0.00 0.00 0.00 0.00 0.00 0.00 0.00 0.00 0.03 0.02
0.00 0.00 0.00 0.00 0.00 0.00 0.00 0.00 0.00 0.00 0.00 0.00 0.00 0.00 0.00 0.00 0.00 0.00 0.00 0.00 0.00 0.00 0.00 0.00 0.00 0.00 0.00 0.00 0.00 0.00 0.00 0.00 0.00 0.00 0.00 0.00 0.00 0.02 0.00 0.00 0.00 0.00 0.04
0.00 0.00 0.00 0.00 0.00 0.00 0.00 0.00 0.00 0.00 0.00 0.00 0.00 0.00 0.00 0.00 0.00 0.00 0.00 0.00 0.00 0.00 0.00 0.00 0.00 0.00 0.00 0.00 0.00 0.00 0.00 0.00 0.00 0.00 0.00 0.00 0.02 0.05 0.11 0.03 0.00 0.00 0.00
0.00 0.00 0.00 0.00 0.00 0.00 0.00 0.00 0.00 0.00 0.00 0.00 0.00 0.00 0.00 0.00 0.00 0.00 0.00 0.00 0.00 0.00 0.00 0.00 0.00 0.00 0.00 0.00 0.00 0.00 0.00 0.00 0.00 0.00 0.00 0.00 0.01 0.02 0.09 0.08 0.03 0.01 0.02
0.00 0.00 0.00 0.00 0.00 0.00 0.00 0.00 0.00 0.00 0.00 0.00 0.00 0.00 0.00 0.00 0.00 0.00 0.00 0.00 0.00 0.00 0.00 0.00 0.00 0.00 0.00 0.00 0.00 0.00 0.00 0.00 0.00 0.00 0.00 0.00 0.00 0.01 0.05 0.01 0.01 0.01 0.03
0.00 0.00 0.00 0.00 0.00 0.00 0.00 0.00 0.00 0.00 0.00 0.00 0.00 0.00 0.00 0.00 0.00 0.00 0.00 0.00 0.00 0.00 0.00 0.00 0.00 0.00 0.00 0.00 0.00 0.00 0.00 0.00 0.00 0.00 0.00 0.00 0.01 0.03 0.03 0.01 0.02 0.03 0.05
0.00 0.00 0.00 0.00 0.00 0.00 0.00 0.00 0.00 0.00 0.00 0.00 0.00 0.00 0.00 0.00 0.00 0.00 0.00 0.00 0.00 0.00 0.00 0.00 0.00 0.00 0.00 0.00 0.00 0.00 0.01 0.01 0.02 0.00 0.01 0.02 0.05 0.11 0.01 0.00 0.00 0.01 0.11
0.00 0.00 0.00 0.00 0.00 0.00 0.00 0.00 0.00 0.00 0.00 0.00 0.00 0.00 0.00 0.00 0.00 0.00 0.00 0.00 0.00 0.00 0.00 0.00 0.01 0.01 0.02 0.06 0.03 0.01 0.02 0.05 0.03 0.01 0.02 0.04 0.08 0.03 0.00 0.01 0.01 0.10 0.21
0.00 0.00 0.00 0.00 0.00 0.00 0.00 0.00 0.00 0.00 0.00 0.00 0.00 0.00 0.00 0.00 0.00 0.00 0.00 0.00 0.00 0.00 0.00 0.00 0.01 0.02 0.02 0.01 0.02 0.01 0.00 0.03 0.04 0.04 0.08 0.11 0.07 0.03 0.03 0.02 0.04 0.03 0.01
0.00 0.00 0.00 0.01 0.01 0.02 0.00 0.00 0.00 0.00 0.00 0.00 0.00 0.00 0.00 0.00 0.00 0.00 0.00 0.00 0.00 0.00 0.00 0.00 0.00 0.00 0.00 0.00 0.00 0.01 0.01 0.05 0.07 0.06 0.06 0.11 0.04 0.02 0.02 0.01 0.01 0.01 0.00
0.00 0.00 0.01 0.05 0.09 0.09 0.05 0.02 0.01 0.00 0.00 0.00 0.00 0.00 0.00 0.00 0.00 0.00 0.00 0.00 0.00 0.00 0.00 0.00 0.00 0.00 0.00 0.00 0.00 0.00 0.00 0.00 0.01 0.03 0.03 0.03 0.03 0.01 0.01 0.01 0.01 0.01 0.01
0.00 0.00 0.02 0.08 0.13 0.10 0.04 0.07 0.02 0.00 0.00 0.00 0.00 0.02 0.05 0.00 0.00 0.00 0.00 0.00 0.00 0.00 0.00 0.00 0.00 0.00 0.00 0.00 0.00 0.00 0.04 0.03 0.03 0.04 0.04 0.02 0.02 0.02 0.00 0.01 0.01 0.00 0.00
0.00 0.00 0.03 0.05 0.13 0.07 0.00 0.01 0.02 0.03 0.03 0.03 0.15 0.17 0.04 0.00 0.00 0.00 0.00 0.00 0.00 0.00 0.00 0.00 0.00 0.00 0.00 0.00 0.00 0.00 0.00 0.01 0.00 0.01 0.01 0.00 0.00 0.00 0.00 0.00 0.00 0.00 0.00
0.00 0.00 0.00 0.07 0.12 0.08 0.02 0.12 0.18 0.13 0.02 0.14 0.17 0.06 0.00 0.00 0.00 0.00 0.00 0.00 0.00 0.00 0.00 0.00 0.00 0.00 0.00 0.00 0.00 0.00 0.00 0.00 0.00 0.00 0.00 0.00 0.00 0.00 0.00 0.00 0.00 0.00 0.00
0.00 0.00 0.00 0.08 0.18 0.14 0.17 0.21 0.26 0.34 0.54 0.37 0.11 0.10 0.02 0.00 0.00 0.00 0.00 0.00 0.00 0.00 0.00 0.00 0.00 0.00 0.00 0.00 0.00 0.00 0.00 0.00 0.00 0.00 0.00 0.00 0.00 0.00 0.00 0.00 0.00 0.00 0.00
0.00 0.00 0.00 0.14 0.17 0.24 0.24 0.16 0.06 0.11 0.18 0.21 0.14 0.03 0.00 0.00 0.00 0.00 0.00 0.00 0.00 0.00 0.00 0.00 0.00 0.00 0.00 0.00 0.00 0.00 0.00 0.00 0.00 0.00 0.00 0.00 0.00 0.00 0.00 0.00 0.00 0.00 0.00
0.00 0.00 0.03 0.16 0.22 0.29 0.23 0.05 0.01 0.01 0.01 0.01 0.02 0.01 0.00 0.00 0.00 0.00 0.00 0.00 0.00 0.00 0.00 0.00 0.00 0.00 0.00 0.00 0.00 0.00 0.00 0.00 0.00 0.00 0.00 0.00 0.00 0.00 0.00 0.00 0.00 0.00 0.00
0.00 0.00 0.06 0.13 0.19 0.24 0.18 0.04 0.01 0.03 0.07 0.08 0.04 0.02 0.01 0.01 0.00 0.00 0.00 0.00 0.00 0.00 0.00 0.00 0.00 0.00 0.00 0.00 0.00 0.00 0.00 0.00 0.00 0.00 0.00 0.00 0.00 0.00 0.00 0.00 0.00 0.00 0.00
0.00 0.01 0.05 0.13 0.19 0.26 0.21 0.08 0.05 0.03 0.04 0.08 0.06 0.04 0.01 0.01 0.00 0.00 0.00 0.00 0.00 0.00 0.00 0.00 0.00 0.00 0.00 0.00 0.00 0.00 0.00 0.00 0.00 0.00 0.00 0.00 0.00 0.00 0.00 0.00 0.00 0.00 0.00
0.00 0.00 0.01 0.06 0.12 0.14 0.09 0.05 0.02 0.01 0.00 0.01 0.02 0.02 0.02 0.01 0.00 0.00 0.00 0.00 0.00 0.00 0.00 0.00 0.00 0.00 0.00 0.00 0.00 0.00 0.00 0.00 0.00 0.00 0.00 0.00 0.00 0.00 0.00 0.00 0.00 0.00 0.00
0.00 0.00 0.00 0.02 0.03 0.01 0.01 0.02 0.01 0.02 0.02 0.00 0.00 0.00 0.00 0.00 0.00 0.00 0.00 0.00 0.00 0.00 0.00 0.00 0.00 0.00 0.00 0.00 0.00 0.00 0.00 0.00 0.00 0.00 0.00 0.00 0.00 0.00 0.00 0.00 0.00 0.00 0.00
MSLP
1012.94 1013.38 1014.18 1014.76 1015.08 1015.32 1015.34 1015.22 1015.34 1015.52 1016.02 1016.22 1016.71 1017.07 1017.32 1017.70 1017.74 1017.92 1018.17 1018.43 1018.56 1018.49 1018.52 1018.78 1019.00 1019.02 1019.15 1019.25 1019.36 1019.41 1019.44 1019.51 1019.49 1019.71 1019.83 1019.89 1020.04 1020.14 1020.26 1020.38 1020.19 1020.12 1020.59
1012.48 1013.25 1014.12 1014.56 1015.00 1015.26 1015.45 1015.35 1015.55 1015.62 1016.01 1016.32 1016.76 1017.23 1017.60 1017.87 1017.97 1018.10 1018.20 1018.39 1018.60 1018.77 1018.84 1018.76 1019.07 1019.38 1019.41 1019.63 1019.75 1019.72 1019.70 1019.82 1019.80 1019.84 1019.91 1020.05 1020.24 1020.34 1020.44 1020.58 1020.44 1020.74 1020.93
1012.60 1013.22 1014.00 1014.62 1015.00 1015.24 1015.47 1015.43 1015.64 1015.76 1015.98 1016.39 1016.70 1017.20 1017.64 1018.03 1018.26 1018.32 1018.41 1018.60 1018.80 1018.84 1019.07 1019.18 1019.24 1019.48 1019.76 1019.86 1020.04 1020.05 1020.07 1020.12 1020.18 1020.19 1020.07 1019.64 1019.88 1020.54 1020.67 1020.77 1020.84 1020.99 1021.18
1012.44 1013.15 1013.80 1014.60 1014.99 1015.30 1015.52 1015.47 1015.67 1015.98 1016.26 1016.55 1016.86 1017.15 1017.52 1017.95 1018.34 1018.52 1018.60 1018.55 1018.80 1018.96 1018.93 1019.30 1019.48 1019.70 1019.95 1020.12 1020.26 1020.37 1020.43 1020.44 1020.54 1020.50 1020.02 1019.80 1019.88 1020.61 1020.86 1021.02 1021.14 1021.21 1021.37
1012.90 1013.19 1013.76 1014.45 1014.81 1015.13 1015.39 1015.59 1015.86 1016.15 1016.46 1016.70 1017.00 1017.25 1017.61 1017.94 1018.33 1018.57 1018.73 1018.77 1018.80 1019.11 1019.25 1019.38 1019.62 1019.77 1020.07 1020.42 1020.48 1020.60 1020.72 1020.72 1020.67 1020.53 1020.32 1020.22 1020.06 1020.57 1020.85 1021.10 1021.23 1021.38 1021.50
1013.20 1013.44 1013.86 1014.36 1014.77 1015.06 1015.36 1015.54 1015.78 1016.18 1016.61 1016.94 1017.26 1017.48 1017.76 1018.05 1018.32 1018.63 1018.79 1018.91 1018.97 1019.17 1019.44 1019.50 1019.76 1019.93 1020.13 1020.36 1020.63 1020.78 1020.78 1020.81 1020.64 1020.25 1020.40 1020.60 1020.38 1020.68 1020.82 1020.97 1021.23 1021.45 1021.73
1013.35 1013.67 1014.15 1014.66 1014.85 1015.15 1015.58 1015.75 1016.00 1016.29 1016.66 1016.99 1017.39 1017.70 1017.86 1018.22 1018.34 1018.63 1018.88 1018.97 1019.02 1019.24 1019.51 1019.80 1019.89 1020.19 1020.20 1020.23 1020.44 1020.73 1020.93 1020.84 1020.45 1020.34 1020.36 1020.46 1020.60 1020.92 1020.92 1021.04 1021.21 1021.50 1021.73
1013.62 1013.99 1014.28 1014.66 1014.99 1015.29 1015.64 1016.11 1016.35 1016.58 1016.96 1017.20 1017.46 1017.68 1018.00 1018.29 1018.52 1018.74 1018.92 1019.13 1019.22 1019.37 1019.58 1019.90 1019.96 1020.12 1020.40 1020.46 1020.44 1020.62 1020.76 1020.91 1020.60 1020.39 1020.32 1020.32 1020.71 1020.82 1020.85 1021.08 1021.26 1021.38 1021.60
1013.85 1014.11 1014.38 1014.65 1015.04 1015.37 1015.71 1016.16 1016.66 1016.84 1017.02 1017.33 1017.52 1017.84 1018.04 1018.39 1018.68 1018.92 1019.12 1019.23 1019.40 1019.60 1019.75 1019.89 1020.18 1020.22 1020.32 1020.55 1020.64 1020.66 1020.67 1020.71 1020.35 1020.36 1020.37 1020.21 1020.65 1020.66 1020.78 1021.08 1021.26 1021.49 1021.72
1014.30 1014.40 1014.55 1014.74 1014.86 1015.36 1015.76 1016.15 1016.43 1016.71 1017.01 1017.32 1017.70 1017.87 1018.26 1018.52 1018.73 1018.99 1019.20 1019.34 1019.43 1019.60 1019.80 1020.04 1020.12 1020.28 1020.37 1020.51 1020.62 1020.61 1020.64 1020.80 1020.24 1020.17 1020.20 1020.32 1020.62 1020.64 1020.71 1021.03 1021.29 1021.58 1021.82
1014.51 1014.68 1014.82 1015.15 1015.17 1015.47 1015.78 1016.07 1016.51 1016.84 1017.02 1017.35 1017.75 1018.10 1018.33 1018.48 1018.76 1018.98 1019.15 1019.44 1019.65 1019.62 1019.80 1019.91 1020.11 1020.21 1020.36 1020.40 1020.49 1020.62 1020.69 1020.12 1020.33 1020.12 1020.14 1020.46 1020.48 1020.44 1020.68 1021.07 1021.36 1021.62 1021.76
1014.22 1014.73 1015.20 1015.34 1015.46 1015.65 1015.80 1016.20 1016.44 1016.71 1017.06 1017.27 1017.46 1017.96 1018.16 1018.42 1018.58 1018.77 1019.14 1019.55 1019.76 1019.79 1019.86 1019.99 1020.16 1020.21 1020.22 1019.96 1019.96 1020.45 1020.18 1020.34 1020.27 1020.17 1019.99 1020.42 1020.12 1020.53 1021.04 1021.45 1021.75 1021.94 1022.27
1013.73 1014.26 1014.77 1015.14 1015.48 1015.89 1015.88 1016.26 1016.45 1016.87 1017.25 1017.48 1017.66 1017.87 1018.18 1018.49 1018.73 1018.94 1019.13 1019.30 1019.41 1019.82 1019.65 1019.73 1019.74 1019.82 1019.84 1019.94 1019.99 1020.17 1020.40 1020.42 1020.31 1020.41 1020.24 1020.49 1020.49 1020.94 1021.29 1021.72 1022.09 1022.39 1022.78
1013.04 1013.43 1014.14 1014.88 1015.30 1015.89 1016.18 1016.61 1016.76 1016.92 1017.22 1017.48 1017.68 1017.98 1018.19 1018.49 1018.82 1019.08 1019.24 1019.45 1019.57 1019.61 1019.63 1019.53 1019.52 1019.46 1019.84 1020.00 1020.13 1020.24 1020.35 1020.54 1020.39 1020.54 1020.82 1020.70 1020.92 1021.17 1021.50 1021.86 1022.30 1022.73 1022.90
1012.71 1013.25 1013.79 1014.69 1015.48 1016.02 1016.42 1016.72 1016.99 1017.14 1017.42 1017.64 1017.92 1018.27 1018.44 1018.70 1019.00 1019.26 1019.59 1019.86 1019.96 1019.98 1019.92 1019.80 1019.68 1019.78 1019.91 1020.18 1020.29 1020.33 1020.84 1021.24 1021.26 1021.28 1021.46 1021.38 1021.21 1021.48 1021.88 1022.15 1022.60 1023.14 1023.48
1012.42 1012.93 1013.79 1014.76 1015.43 1016.22 1016.68 1016.94 1017.13 1017.33 1017.64 1017.99 1018.19 1018.44 1018.70 1018.86 1019.18 1019.50 1019.71 1019.91 1020.12 1020.17 1020.36 1020.11 1019.94 1019.89 1020.10 1020.34 1020.70 1020.75 1021.11 1021.52 1021.73 1021.80 1022.14 1022.44 1022.34 1022.29 1022.54 1022.96 1023.37 1023.67 1024.01
1011.73 1012.53 1013.29 1014.34 1015.08 1015.95 1016.52 1017.08 1017.29 1017.44 1017.97 1018.33 1018.77 1018.94 1019.03 1019.26 1019.54 1019.71 1019.88 1020.06 1020.32 1020.53 1020.54 1020.65 1020.58 1020.53 1020.53 1020.97 1021.22 1021.43 1021.68 1022.06 1022.34 1022.80 1023.04 1023.04 1023.44 1023.62 1023.60 1023.87 1024.44 1024.49 1024.56
1011.68 1012.11 1012.88 1013.70 1014.70 1015.41 1015.94 1016.32 1016.90 1017.63 1018.34 1018.85 1019.26 1019.46 1019.50 1019.67 1020.01 1020.07 1020.23 1020.40 1020.57 1020.82 1020.84 1020.83 1020.74 1020.88 1021.13 1021.40 1021.75 1021.92 1022.27 1022.63 1022.99 1023.19 1023.55 1023.86 1023.67 1024.50 1024.72 1024.86 1025.10 1025.32 1025.33
1011.32 1012.17 1013.02 1013.91 1014.72 1015.68 1016.28 1017.00 1017.68 1018.40 1018.92 1019.19 1019.27 1019.59 1019.86 1020.16 1020.37 1020.30 1020.60 1021.00 1021.06 1020.85 1020.86 1021.02 1021.21 1021.23 1021.67 1021.93 1022.38 1022.80 1023.26 1023.19 1023.57 1023.75 1024.31 1024.48 1024.78 1025.31 1025.57 1026.06 1026.10 1026.19 1026.14
1010.96 1011.97 1013.17 1014.35 1015.02 1015.90 1016.61 1017.25 1018.14 1018.76 1019.16 1018.44 1018.95 1019.66 1020.15 1020.42 1020.59 1020.70 1020.87 1020.98 1021.26 1021.02 1021.12 1021.40 1021.47 1021.66 1022.07 1022.24 1023.00 1023.58 1024.07 1024.44 1024.23 1024.78 1025.27 1025.69 1025.69 1026.17 1026.42 1026.77 1026.60 1026.90 1026.91
1011.60 1012.41 1013.53 1014.40 1015.49 1015.88 1016.63 1017.54 1018.05 1018.88 1019.18 1019.17 1020.32 1020.71 1020.50 1020.70 1020.95 1020.80 1021.06 1021.08 1021.39 1021.53 1021.59 1021.56 1021.70 1021.88 1022.44 1022.84 1022.98 1024.27 1024.84 1025.31 1025.80 1025.90 1026.07 1026.46 1026.76 1026.93 1027.14 1027.26 1027.32 1027.43 1027.54
1012.54 1013.22 1014.02 1014.83 1015.96 1016.58 1016.91 1017.79 1018.28 1018.72 1019.63 1018.35 1020.22 1020.50 1020.99 1020.67 1021.16 1021.35 1021.43 1021.64 1021.26 1022.01 1022.03 1021.88 1021.61 1021.70 1022.12 1022.54 1022.46 1023.55 1024.77 1025.84 1026.33 1026.90 1026.97 1027.07 1027.31 1027.53 1027.82 1027.67 1027.88 1027.98 1027.89
1013.93 1014.23 1014.68 1015.36 1015.97 1016.96 1017.16 1017.73 1018.58 1019.24 1019.66 1020.03 1020.41 1020.57 1020.77 1021.44 1021.66 1021.54 1021.79 1021.38 1021.82 1021.82 1021.83 1021.92 1022.01 1021.66 1021.58 1022.27 1022.48 1022.38 1023.59 1024.12 1025.82 1027.04 1027.54 1027.61 1027.86 1028.01 1028.24 1028.31 1028.19 1028.41 1028.46
1015.06 1015.34 1015.61 1015.98 1016.37 1016.91 1017.22 1017.10 1017.54 1018.35 1019.08 1020.16 1020.21 1019.66 1020.31 1020.84 1021.57 1021.73 1021.87 1021.68 1021.48 1021.80 1021.96 1021.90 1021.91 1021.94 1021.83 1021.75 1022.36 1022.61 1022.76 1022.97 1024.04 1026.36 1027.54 1028.04 1027.97 1028.18 1028.54 1028.70 1028.70 1028.71 1028.85
1015.42 1015.50 1015.82 1016.16 1016.54 1016.56 1016.69 1017.09 1017.49 1017.96 1018.69 1019.82 1019.72 1019.78 1019.76 1020.12 1020.41 1021.08 1021.64 1021.50 1021.29 1021.42 1021.51 1021.80 1021.96 1022.09 1021.91 1021.83 1021.86 1022.25 1022.49 1022.94 1023.51 1024.14 1026.01 1027.56 1028.04 1028.14 1028.45 1028.71 1028.73 1028.72 1029.06
1015.80 1015.74 1016.00 1016.10 1016.61 1016.63 1016.90 1016.78 1016.67 1016.82 1017.58 1018.56 1018.60 1018.84 1019.07 1019.71 1020.42 1021.11 1021.48 1021.41 1021.25 1021.44 1021.78 1021.74 1021.77 1022.10 1022.02 1021.88 1021.93 1022.11 1021.84 1021.95 1022.49 1023.53 1024.77 1026.32 1026.93 1027.89 1028.41 1028.77 1028.74 1028.79 1029.04
Thickness
5796 5794 5787 5781 5777 5774 5772 5771 5769 5764 5756 5751 5743 5737 5734 5729 5728 5726 5723 5719 5717 5716 5715 5711 5708 5708 5705 5703 5702 5702 5701 5700 5700 5698 5696 5696 5694 5692 5691 5690 5691 5690 5687
5801 5793 5786 5781 5776 5773 5770 5770 5766 5763 5757 5751 5744 5737 5731 5728 5726 5724 5722 5719 5715 5712 5711 5711 5707 5703 5703 5699 5697 5698 5699 5698 5698 5697 5696 5694 5692 5691 5690 5689 5689 5686 5684
5799 5793 5786 5779 5774 5771 5767 5767 5763 5760 5757 5751 5746 5738 5732 5726 5723 5722 5719 5716 5713 5711 5707 5706 5705 5702 5698 5697 5695 5694 5694 5694 5693 5694 5695 5696 5693 5689 5688 5687 5686 5684 5682
5799 5792 5785 5778 5773 5769 5765 5764 5760 5756 5752 5748 5744 5739 5733 5727 5722 5718 5716 5716 5713 5710 5709 5704 5702 5699 5696 5693 5692 5691 5690 5691 5689 5690 5692 5694 5693 5688 5686 5685 5683 5682 5680
5793 5790 5784 5778 5773 5768 5764 5761 5756 5752 5748 5745 5740 5737 5731 5726 5720 5717 5714 5713 5711 5707 5705 5703 5700 5698 5695 5690 5688 5687 5686 5687 5688 5687 5688 5689 5691 5688 5686 5683 5682 5680 5679
5789 5785 5781 5776 5771 5767 5763 5760 5756 5750 5744 5739 5735 5732 5727 5723 5719 5715 5712 5710 5707 5705 5702 5701 5698 5696 5694 5691 5687 5684 5684 5684 5685 5687 5686 5685 5686 5685 5684 5683 5680 5678 5676
5787 5782 5776 5771 5768 5763 5758 5755 5752 5747 5741 5736 5731 5726 5724 5719 5717 5713 5709 5707 5705 5702 5699 5697 5696 5691 5691 5691 5688 5683 5680 5682 5683 5683 5684 5683 5682 5680 5680 5679 5678 5676 5674
5782 5777 5773 5769 5763 5759 5754 5748 5745 5740 5734 5730 5727 5724 5719 5715 5712 5709 5706 5704 5702 5699 5696 5693 5693 5691 5687 5686 5687 5684 5681 5678 5679 5680 5681 5680 5678 5677 5677 5676 5676 5675 5674
5779 5775 5770 5765 5760 5756 5751 5744 5737 5733 5730 5725 5722 5718 5716 5711 5707 5704 5702 5700 5698 5696 5693 5690 5687 5687 5685 5683 5681 5681 5681 5680 5678 5677 5677 5678 5676 5675 5675 5674 5673 5672 5671
5773 5769 5765 5761 5758 5750 5744 5739 5734 5729 5725 5720 5716 5714 5709 5706 5704 5700 5698 5696 5695 5693 5690 5687 5684 5682 5681 5679 5678 5678 5678 5678 5678 5676 5674 5673 5673 5673 5673 5671 5670 5668 5666
5764 5761 5757 5752 5750 5744 5738 5734 5728 5723 5720 5715 5710 5706 5704 5701 5698 5696 5694 5691 5688 5689 5686 5685 5682 5679 5676 5676 5675 5674 5673 5675 5674 5674 5673 5671 5670 5671 5669 5667 5665 5664 5663
5756 5752 5747 5744 5741 5736 5731 5725 5721 5717 5712 5708 5706 5701 5700 5698 5696 5693 5690 5686 5683 5682 5681 5679 5677 5675 5673 5673 5673 5670 5670 5668 5668 5669 5670 5668 5668 5666 5664 5661 5659 5658 5656
5755 5750 5744 5738 5733 5726 5722 5717 5713 5708 5703 5701 5699 5696 5694 5691 5689 5686 5684 5681 5679 5676 5676 5675 5674 5672 5671 5668 5668 5667 5663 5661 5661 5661 5663 5662 5661 5658 5657 5655 5652 5649 5646
5754 5750 5742 5732 5725 5718 5712 5707 5704 5701 5697 5694 5692 5690 5688 5685 5682 5679 5677 5675 5673 5672 5671 5671 5670 5669 5667 5664 5661 5661 5658 5654 5654 5653 5650 5652 5652 5649 5648 5647 5645 5642 5640
5748 5742 5736 5725 5714 5706 5702 5697 5694 5692 5688 5685 5682 5679 5678 5676 5673 5670 5667 5664 5662 5662 5661 5661 5662 5661 5660 5657 5656 5655 5650 5644 5641 5642 5641 5641 5643 5641 5639 5639 5635 5631 5629
5743 5736 5727 5715 5704 5695 5691 5685 5682 5680 5678 5674 5672 5669 5667 5665 5663 5661 5658 5656 5653 5652 5648 5650 5652 5652 5650 5648 5647 5645 5641 5636 5633 5632 5630 5628 5628 5628 5627 5624 5621 5620 5619
5739 5732 5725 5713 5701 5691 5685 5676 5672 5670 5667 5664 5658 5655 5653 5652 5650 5649 5648 5646 5644 5643 5642 5641 5640 5641 5640 5636 5635 5633 5630 5626 5623 5620 5618 5617 5613 5612 5612 5611 5607 5607 5608
5733 5728 5722 5713 5701 5689 5683 5677 5672 5666 5658 5651 5646 5642 5640 5639 5639 5639 5637 5637 5636 5634 5634 5634 5633 5631 5629 5626 5623 5622 5619 5616 5611 5609 5608 5604 5606 5598 5596 5595 5594 5594 5594
5728 5720 5711 5703 5692 5680 5671 5665 5661 5654 5647 5638 5633 5631 5630 5627 5627 5628 5625 5624 5624 5626 5625 5624 5623 5622 5618 5615 5612 5608 5604 5605 5600 5598 5594 5592 5590 5586 5584 5581 5581 5580 5580
5724 5716 5705 5694 5681 5670 5662 5655 5648 5643 5636 5626 5615 5623 5619 5617 5615 5615 5614 5614 5613 5615 5615 5613 5612 5610 5607 5606 5600 5595 5590 5588 5589 5583 5579 5576 5576 5573 5571 5568 5569 5568 5568
5714 5705 5695 5685 5672 5666 5657 5646 5643 5638 5635 5635 5620 5612 5610 5607 5603 5603 5602 5604 5603 5602 5603 5603 5603 5601 5596 5593 5593 5582 5577 5574 5570 5569 5566 5563 5561 5560 5559 5558 5557 5556 5556
5700 5694 5687 5677 5666 5657 5649 5639 5635 5632 5624 5633 5615 5609 5601 5601 5594 5593 5593 5593 5596 5589 5589 5591 5594 5593 5590 5587 5588 5580 5570 5562 5558 5553 5554 5552 5550 5547 5545 5546 5544 5544 5545
5683 5680 5675 5669 5661 5648 5641 5634 5626 5620 5617 5610 5606 5603 5599 5589 5588 5591 5586 5588 5583 5580 5581 5581 5580 5583 5584 5579 5578 5582 5570 5573 5553 5543 5539 5539 5538 5536 5534 5533 5534 5532 5532
5666 5664 5661 5658 5652 5645 5639 5637 5632 5624 5617 5604 5600 5602 5593 5588 5580 5577 5578 5578 5578 5574 5570 5571 5571 5572 5574 5575 5569 5567 5566 5567 5564 5539 5528 5523 5525 5525 5523 5521 5521 5521 5519
5657 5655 5650 5647 5642 5641 5637 5631 5625 5617 5608 5597 5595 5593 5593 5590 5586 5573 5569 5571 5571 5568 5565 5563 5560 5560 5561 5562 5562 5559 5558 5555 5551 5547 5528 5514 5512 5512 5510 5509 5508 5508 5505
5647 5646 5642 5638 5631 5628 5625 5623 5621 5617 5605 5597 5595 5592 5589 5580 5570 5563 5559 5560 5560 5557 5554 5552 5550 5548 5548 5549 5549 5548 5552 5553 5549 5540 5529 5514 5513 5503 5499 5496 5496 5494 5492